Wind_Speed
34 35 35 35 35 36 36 36 36 36 36 37 38 38 38 38 38 38 38 37 37 38 39 38 38 37 38 38 38 38 38 39 39 39 39 39 39 40 41 42 42 43 43
34 35 35 35 36 36 36 36 35 35 36 36 37 38 38 39 39 38 38 38 37 37 38 38 38 38 38 37 38 38 38 39 40 40 40 39 40 41 41 42 43 44 44
34 34 35 35 36 36 36 36 36 36 36 37 37 38 38 39 39 39 38 38 38 38 38 38 38 38 38 38 38 38 39 39 40 41 41 40 40 41 42 43 43 44 45
34 34 34 34 34 35 36 36 37 37 37 37 38 38 39 39 39 39 39 39 38 38 38 39 38 38 38 38 38 38 39 39 39 40 41 42 42 43 43 43 44 45 46
34 34 34 34 35 36 36 37 37 37 37 37 38 39 39 39 40 40 40 39 39 39 39 39 38 38 38 39 39 39 39 39 40 41 42 43 43 44 45 44 45 46 47
34 34 34 35 35 36 36 37 37 37 37 37 37 38 39 39 40 40 40 40 39 39 39 38 39 39 39 40 40 40 40 40 41 42 43 44 44 45 46 46 46 47 47
34 34 34 34 35 35 36 36 37 37 37 38 37 37 39 39 39 40 40 40 40 39 39 39 39 40 41 41 41 41 41 42 43 43 44 45 46 46 46 47 48 47 48
32 33 34 34 34 35 36 36 36 37 37 37 37 38 38 39 40 40 40 40 39 39 39 40 41 41 41 41 41 41 42 42 43 44 44 45 46 47 47 49 49 49 49
33 33 33 33 34 34 35 35 36 36 36 37 37 38 38 38 39 40 40 40 40 40 40 40 41 42 41 41 40 40 41 41 43 44 44 45 46 47 47 49 49 50 49
33 33 33 34 34 35 35 35 35 35 36 37 37 38 38 38 38 38 39 39 39 40 41 41 41 42 41 41 40 40 41 42 44 44 45 45 46 46 47 47 47 47 48
34 33 33 34 34 35 36 36 35 35 35 36 36 37 37 37 37 37 38 39 39 39 40 41 41 41 41 41 41 41 42 42 43 44 45 45 45 45 45 45 45 45 46
34 33 33 33 34 34 34 35 35 35 35 35 36 36 36 36 36 37 37 38 38 38 39 40 40 40 40 41 41 42 42 42 43 44 44 44 44 45 44 44 45 45 46
34 34 33 33 33 33 33 33 34 35 35 35 35 35 35 35 36 36 37 37 37 37 38 39 39 39 39 40 41 41 42 43 43 44 44 44 44 44 44 44 44 45 45
35 35 34 33 33 33 32 33 34 33 33 33 34 34 34 34 34 34 34 35 35 36 38 38 38 39 39 39 40 40 41 42 42 43 44 45 45 45 45 44 44 44 44
34 34 33 33 33 33 33 33 33 33 33 32 32 33 32 32 32 32 32 33 34 35 37 37 38 38 38 38 39 40 41 42 42 43 44 45 45 44 44 43 42 42 42
33 33 32 32 32 32 32 32 32 32 31 31 31 32 31 30 30 30 31 33 34 35 36 37 37 37 37 37 38 39 39 40 41 41 42 42 42 42 42 41 41 40 40
32 31 31 30 30 30 30 31 31 31 30 30 30 30 30 30 30 31 32 32 33 35 36 37 37 37 37 37 38 39 39 40 40 40 40 40 40 40 39 39 39 40 40
31 31 30 29 30 30 30 30 30 30 30 30 30 30 30 30 30 31 32 32 34 35 36 37 37 37 37 38 38 38 39 39 39 38 38 38 37 37 37 37 37 37 39
31 31 31 30 30 30 30 30 29 29 30 30 30 30 31 30 31 32 32 33 34 34 35 36 36 36 37 37 38 38 38 37 36 36 35 36 36 35 36 35 36 36 36
30 31 31 31 31 30 30 30 30 30 30 30 31 30 30 31 31 32 33 33 34 34 34 35 36 36 36 36 37 37 37 36 35 35 35 35 35 34 34 34 34 34 34
30 30 30 30 31 31 31 31 31 31 30 30 31 31 31 31 31 31 32 32 32 33 33 33 34 35 35 35 35 35 35 34 34 34 34 34 35 34 34 34 34 34 34
30 30 30 30 30 30 31 30 30 30 31 30 31 30 31 31 31 31 32 32 33 32 32 32 32 32 32 32 32 33 33 33 33 33 33 33 34 34 34 34 34 34 34
29 29 29 29 29 29 30 30 30 30 31 31 30 30 30 30 31 31 31 31 32 31 31 32 31 31 31 31 31 32 32 32 32 32 32 32 33 33 33 33 32 33 33
28 28 28 29 29 28 29 29 30 30 30 30 30 30 30 31 30 30 30 31 31 31 31 31 31 31 31 30 30 30 31 30 30 30 30 30 31 31 31 31 31 31 31
27 27 27 27 27 28 28 29 29 30 30 30 30 30 30 30 30 29 29 29 30 30 30 30 30 29 29 29 29 29 29 29 29 29 30 29 29 30 29 29 30 30 29
26 26 26 26 27 28 28 28 28 29 29 29 29 29 29 29 29 29 29 29 29 28 28 28 29 28 28 28 28 28 27 28 28 28 28 28 28 28 28 28 28 28 28
Wind_Direction
265 264 263 262 262 262 261 262 262 261 261 261 260 259 259 260 261 262 262 263 263 263 264 265 264 264 264 265 265 266 267 267 268 266 265 265 267 269 269 269 269 269 269
265 264 263 262 262 262 262 262 261 261 261 262 261 260 260 260 260 261 262 263 264 264 264 265 265 265 265 265 265 266 267 268 268 267 267 267 268 269 270 270 269 269 269
265 265 264 263 263 262 262 262 262 262 262 261 261 260 260 260 260 261 262 264 264 265 265 265 265 265 265 266 266 266 268 269 269 268 268 269 268 269 270 270 269 269 269
264 264 264 264 263 263 262 261 262 263 262 262 261 261 261 261 261 261 261 263 264 265 265 265 265 265 265 266 266 267 268 269 270 270 271 271 271 272 271 270 270 270 270
263 263 263 263 263 262 262 262 262 262 262 262 262 262 261 261 261 260 260 262 263 265 265 264 264 265 266 266 267 268 269 269 270 272 273 272 273 273 273 271 270 271 271
263 262 262 262 262 263 263 263 264 263 262 262 262 262 262 262 261 261 261 261 262 264 265 264 264 265 267 267 267 268 269 269 271 273 274 275 276 275 274 273 272 272 272
262 261 262 263 263 263 264 264 265 264 263 263 263 263 263 263 263 262 261 261 262 263 264 265 265 265 266 268 268 268 269 270 271 273 275 275 277 276 275 273 273 273 273
263 263 263 264 263 263 265 266 266 266 264 263 264 264 264 264 264 263 262 261 262 264 265 265 266 266 267 268 269 269 270 271 272 273 275 277 277 277 276 274 274 274 274
264 265 265 264 264 265 265 267 267 266 265 265 265 265 265 265 265 264 262 261 262 263 265 267 267 267 267 267 269 270 271 273 274 275 276 277 278 278 277 275 275 276 276
264 264 265 265 265 266 266 266 266 266 266 266 266 266 266 266 266 265 263 262 262 264 266 267 268 267 268 268 270 271 272 274 275 276 278 278 278 278 277 277 277 277 277
265 265 264 265 266 267 266 265 265 266 267 267 266 265 266 266 266 265 264 263 264 265 266 267 268 268 269 270 271 271 272 275 277 278 278 279 280 279 279 277 277 278 278
264 265 265 266 267 268 268 267 266 267 268 267 266 266 266 266 266 267 266 265 265 266 267 267 267 269 270 270 271 273 273 275 277 278 277 278 280 280 279 279 278 278 278
264 265 266 266 267 268 268 268 268 268 267 267 266 266 267 267 267 267 267 267 267 268 267 267 268 269 269 270 272 273 274 275 276 277 277 279 280 280 279 280 279 278 277
264 265 266 266 267 267 267 268 267 267 267 267 266 267 268 268 269 268 268 269 269 269 268 267 268 269 270 271 273 273 274 275 276 277 278 279 280 281 280 279 278 278 277
265 265 266 266 267 267 266 267 266 267 267 267 267 267 268 269 268 267 268 269 270 271 271 270 270 271 272 273 274 275 276 276 277 279 280 280 280 281 279 279 278 278 278
265 265 266 266 267 267 266 266 266 267 268 267 267 268 268 268 267 267 268 270 271 272 271 270 271 273 274 275 275 276 277 278 279 280 280 281 281 280 279 278 277 278 279
264 264 265 265 265 266 266 266 265 265 267 267 267 268 269 269 270 269 269 271 273 273 271 271 272 273 275 277 278 278 279 279 280 280 279 280 280 280 280 280 279 278 278
263 263 263 264 265 266 265 266 265 265 265 267 267 267 270 271 271 272 273 273 274 274 274 273 273 274 275 276 279 280 281 281 281 281 281 281 280 280 280 280 280 279 279
262 262 262 264 265 265 265 266 266 264 264 266 267 269 270 270 271 272 273 274 275 276 275 273 273 274 276 277 279 281 282 281 281 280 280 280 280 281 281 280 280 280 280
261 261 261 263 264 264 263 265 265 265 266 267 268 269 270 270 272 273 274 275 278 277 275 273 274 276 277 278 280 281 282 281 280 280 279 280 281 281 280 281 281 281 281
264 262 262 263 263 263 263 265 265 266 267 268 269 270 270 270 273 274 274 276 278 278 277 276 276 277 276 279 280 281 280 280 279 279 280 280 281 281 281 282 282 282 281
264 263 263 263 263 263 263 264 265 265 266 269 270 270 271 272 272 273 275 276 278 279 278 277 277 277 277 279 280 280 280 280 280 280 281 281 281 282 282 283 283 282 282
263 263 262 263 264 264 264 264 265 265 267 268 270 270 270 272 272 273 274 276 277 279 278 277 277 277 279 279 279 280 280 281 282 283 284 283 283 284 284 284 284 283 283
263 262 263 264 264 263 264 265 265 266 267 269 270 270 270 270 272 273 274 275 278 279 278 277 278 279 280 280 280 281 282 283 283 285 286 286 286 286 286 286 285 284 284
264 263 264 263 263 264 265 266 266 266 268 270 270 270 271 271 273 274 275 276 278 279 278 277 279 280 280 280 282 283 283 283 284 285 286 286 286 287 288 288 286 285 285
263 263 263 263 263 264 265 266 267 268 269 269 270 272 272 271 272 272 275 277 280 279 279 279 280 281 280 281 283 284 284 284 284 284 286 287 287 287 288 287 286 285 284
Height
5711 5712 5712 5713 5713 5714 5715 5716 5716 5717 5718 5719 5720 5721 5722 5723 5724 5725 5725 5726 5727 5728 5729 5730 5731 5732 5733 5734 5735 5736 5736 5737 5738 5739 5740 5740 5741 5741 5741 5741 5741 5742 5742
5702 5702 5703 5704 5704 5705 5706 5706 5707 5708 5709 5709 5710 5711 5712 5713 5714 5715 5716 5717 5718 5719 5720 5721 5722 5722 5724 5725 5725 5726 5727 5727 5727 5729 5730 5731 5732 5732 5732 5731 5731 5731 5731
5693 5693 5694 5694 5695 5695 5696 5697 5698 5698 5699 5700 5700 5701 5702 5703 5704 5706 5707 5708 5709 5709 5710 5711 5712 5713 5714 5715 5716 5717 5717 5718 5718 5718 5719 5720 5721 5722 5722 5721 5721 5721 5720
5684 5684 5685 5685 5685 5686 5687 5687 5688 5689 5689 5690 5690 5691 5692 5693 5695 5696 5697 5698 5699 5700 5701 5702 5703 5704 5705 5706 5706 5707 5707 5708 5708 5708 5709 5709 5709 5710 5711 5711 5710 5710 5709
5675 5675 5675 5676 5676 5676 5677 5678 5678 5679 5679 5680 5680 5681 5682 5683 5684 5685 5687 5688 5689 5690 5691 5692 5693 5694 5695 5696 5697 5697 5698 5698 5698 5698 5698 5698 5698 5697 5698 5699 5699 5698 5697
5665 5665 5666 5666 5667 5667 5668 5668 5669 5669 5669 5670 5670 5671 5671 5672 5673 5675 5676 5678 5679 5680 5681 5682 5684 5684 5685 5686 5687 5687 5688 5688 5688 5688 5687 5687 5687 5686 5685 5686 5686 5686 5686
5656 5656 5657 5657 5658 5658 5658 5659 5659 5659 5659 5660 5660 5661 5661 5662 5663 5664 5666 5667 5669 5671 5672 5672 5674 5674 5675 5676 5677 5677 5678 5677 5677 5677 5677 5676 5675 5674 5673 5673 5673 5674 5673
5647 5647 5648 5648 5649 5649 5649 5649 5649 5650 5650 5650 5651 5651 5651 5652 5652 5653 5654 5656 5659 5660 5661 5662 5663 5664 5665 5665 5666 5667 5667 5667 5666 5665 5665 5664 5663 5662 5661 5660 5660 5660 5660
5638 5638 5639 5639 5639 5640 5640 5640 5640 5640 5640 5641 5641 5641 5641 5642 5642 5643 5644 5646 5648 5649 5651 5652 5652 5653 5654 5655 5655 5656 5656 5656 5655 5654 5653 5651 5650 5648 5647 5646 5646 5646 5646
5629 5629 5630 5630 5630 5630 5631 5631 5631 5631 5631 5631 5631 5632 5632 5632 5632 5633 5634 5636 5637 5639 5640 5641 5642 5642 5643 5644 5644 5645 5645 5644 5643 5642 5641 5639 5637 5636 5634 5633 5633 5632 5632
5620 5620 5621 5621 5621 5621 5621 5621 5622 5622 5622 5622 5622 5622 5622 5622 5623 5624 5625 5626 5627 5629 5630 5631 5631 5632 5632 5633 5633 5633 5634 5633 5632 5630 5629 5627 5625 5623 5622 5621 5621 5620 5619
5610 5611 5611 5612 5612 5612 5612 5612 5612 5613 5613 5612 5613 5613 5613 5613 5614 5615 5616 5617 5618 5619 5619 5620 5621 5621 5622 5622 5622 5622 5622 5621 5620 5619 5618 5616 5614 5612 5611 5610 5609 5608 5607
5601 5602 5602 5603 5603 5603 5603 5603 5603 5603 5603 5603 5603 5604 5604 5605 5605 5606 5606 5607 5608 5609 5609 5610 5611 5611 5611 5611 5611 5611 5611 5610 5609 5608 5606 5605 5603 5601 5599 5598 5597 5596 5594
5592 5593 5593 5594 5594 5594 5594 5594 5595 5595 5594 5594 5595 5595 5595 5595 5596 5597 5597 5598 5598 5599 5600 5600 5601 5601 5601 5601 5601 5601 5600 5599 5598 5596 5595 5594 5592 5590 5588 5587 5585 5584 5582
5583 5584 5584 5585 5585 5585 5585 5586 5586 5586 5586 5586 5586 5587 5587 5587 5587 5588 5588 5589 5589 5590 5590 5591 5591 5591 5591 5591 5591 5590 5590 5589 5587 5585 5584 5582 5580 5578 5577 5575 5574 5572 5571
5574 5575 5575 5576 5576 5576 5577 5577 5577 5577 5578 5578 5578 5578 5579 5579 5579 5580 5580 5581 5581 5581 5581 5581 5581 5581 5581 5581 5580 5580 5579 5578 5576 5574 5573 5571 5569 5567 5565 5564 5562 5561 5560
5565 5566 5566 5567 5567 5568 5569 5569 5569 5570 5570 5570 5571 5571 5571 5572 5572 5572 5572 5572 5573 5573 5572 5572 5572 5571 5571 5571 5570 5569 5568 5567 5565 5564 5562 5560 5558 5556 5554 5553 5552 5551 5549
5557 5558 5558 5559 5560 5560 5561 5561 5561 5562 5562 5563 5563 5563 5564 5564 5564 5564 5564 5564 5564 5564 5563 5563 5562 5562 5562 5561 5560 5558 5557 5556 5554 5553 5551 5549 5547 5546 5544 5543 5541 5540 5538
5548 5549 5550 5551 5551 5552 5553 5553 5553 5554 5554 5555 5555 5556 5556 5556 5556 5556 5556 5556 5555 5555 5554 5553 5553 5553 5552 5551 5549 5548 5547 5546 5544 5542 5541 5539 5538 5536 5534 5533 5532 5530 5529
5540 5541 5542 5543 5544 5544 5545 5545 5546 5546 5547 5547 5547 5547 5547 5547 5548 5548 5548 5547 5546 5546 5545 5544 5543 5543 5542 5541 5539 5538 5537 5536 5534 5533 5531 5530 5528 5526 5524 5523 5522 5521 5519
5532 5533 5534 5534 5535 5536 5536 5537 5538 5538 5539 5539 5539 5539 5539 5539 5539 5539 5539 5538 5538 5537 5536 5535 5535 5534 5533 5531 5530 5528 5527 5526 5524 5523 5522 5520 5518 5517 5515 5514 5513 5511 5510
5523 5524 5525 5526 5526 5527 5528 5529 5529 5530 5530 5531 5531 5531 5531 5531 5531 5531 5530 5530 5529 5528 5527 5526 5526 5524 5523 5522 5520 5519 5518 5516 5515 5514 5513 5511 5509 5508 5506 5504 5503 5501 5500
5515 5516 5516 5517 5518 5519 5520 5520 5521 5522 5522 5523 5522 5522 5522 5522 5522 5522 5522 5521 5520 5519 5518 5518 5517 5516 5514 5513 5512 5510 5509 5507 5506 5505 5503 5502 5500 5498 5497 5495 5494 5492 5491
5507 5507 5508 5509 5509 5510 5511 5512 5513 5513 5514 5514 5514 5514 5514 5514 5513 5513 5513 5512 5512 5511 5510 5509 5508 5507 5506 5504 5503 5502 5500 5499 5498 5496 5494 5493 5491 5490 5488 5487 5485 5483 5482
5499 5499 5500 5501 5502 5503 5503 5504 5505 5505 5505 5505 5505 5505 5505 5505 5505 5505 5504 5504 5503 5502 5501 5500 5500 5499 5497 5496 5495 5493 5492 5491 5489 5488 5486 5485 5483 5482 5480 5478 5477 5475 5474
5492 5492 5493 5493 5494 5495 5496 5496 5497 5497 5497 5497 5497 5497 5497 5497 5497 5497 5496 5495 5495 5494 5493 5492 5491 5490 5489 5488 5487 5485 5484 5482 5481 5480 5478 5477 5475 5474 5472 5470 5468 5467 5466